Time,TemperatureF,DewpointF,PressureIn,WindDirection,WindDirectionDegrees,WindSpeedMPH,WindSpeedGustMPH,Humidity,HourlyPrecipIn,Conditions,Clouds,dailyrainin,SoftwareType,DateUTC
2013-08-18 02:00:00,65.0,-99.9,30.13,North,0,1.0,-999.0,-999,-99.99,,,-99.99,,2013-08-18 06:00:00,
2013-08-18 02:42:00,65.0,-99.9,30.13,North,0,1.0,-999.0,-999,-99.99,,,-99.99,,2013-08-18 06:42:00,
2013-08-18 02:52:00,65.0,-99.9,30.13,North,0,1.0,-999.0,-999,-99.99,,,-99.99,,2013-08-18 06:52:00,
2013-08-18 04:00:00,63.0,-99.9,30.11,SE,130,7.0,-999.0,-999,-99.99,,,-99.99,,2013-08-18 08:00:00,
2013-08-18 04:42:00,63.0,-99.9,30.11,SE,130,7.0,-999.0,-999,-99.99,,,-99.99,,2013-08-18 08:42:00,
2013-08-18 04:52:00,63.0,-99.9,30.11,SE,130,7.0,-999.0,-999,-99.99,,,-99.99,,2013-08-18 08:52:00,
2013-08-18 05:00:00,61.0,-99.9,30.12,SE,130,6.0,-999.0,-999,-99.99,,,-99.99,,2013-08-18 09:00:00,
2013-08-18 05:43:00,61.0,-99.9,30.12,SE,130,6.0,-999.0,-999,-99.99,,,-99.99,,2013-08-18 09:43:00,
2013-08-18 05:53:00,61.0,-99.9,30.12,SE,130,6.0,-999.0,-999,-99.99,,,-99.99,,2013-08-18 09:53:00,
2013-08-18 14:00:00,69.0,-99.9,30.14,WNW,300,2.0,-999.0,-999,-99.99,,,-99.99,,2013-08-18 18:00:00,
2013-08-18 14:43:00,69.0,-99.9,30.14,WNW,300,2.0,-999.0,-999,-99.99,,,-99.99,,2013-08-18 18:43:00,
2013-08-18 14:52:00,69.0,-99.9,30.14,WNW,300,2.0,-999.0,-999,-99.99,,,-99.99,,2013-08-18 18:52:00,
2013-08-18 16:00:00,70.0,-99.9,30.09,WNW,300,6.0,-999.0,-999,-99.99,,,-99.99,,2013-08-18 20:00:00,
2013-08-18 16:42:00,70.0,-99.9,30.09,WNW,300,6.0,-999.0,-999,-99.99,,,-99.99,,2013-08-18 20:42:00,
2013-08-18 16:52:00,70.0,-99.9,30.09,WNW,300,6.0,-999.0,-999,-99.99,,,-99.99,,2013-08-18 20:52:00,
2013-08-18 17:00:00,71.0,-99.9,30.08,NNW,340,8.0,-999.0,-999,-99.99,,,-99.99,,2013-08-18 21:00:00,
2013-08-18 17:42:00,71.0,-99.9,30.08,NNW,340,8.0,-999.0,-999,-99.99,,,-99.99,,2013-08-18 21:42:00,
2013-08-18 17:54:00,71.0,-99.9,30.08,NNW,340,8.0,-999.0,-999,-99.99,,,-99.99,,2013-08-18 21:54:00,
2013-08-18 18:00:00,72.0,-99.9,30.07,NNE,30,8.0,-999.0,-999,-99.99,,,-99.99,,2013-08-18 22:00:00,
2013-08-18 18:42:00,72.0,-99.9,30.07,NNE,30,8.0,-999.0,-999,-99.99,,,-99.99,,2013-08-18 22:42:00,
2013-08-18 18:52:00,72.0,-99.9,30.07,NNE,30,8.0,-999.0,-999,-99.99,,,-99.99,,2013-08-18 22:52:00,
2013-08-18 19:00:00,71.0,-99.9,30.06,NE,40,11.0,-999.0,-999,-99.99,,,-99.99,,2013-08-18 23:00:00,
2013-08-18 19:42:00,71.0,-99.9,30.06,NE,40,11.0,-999.0,-999,-99.99,,,-99.99,,2013-08-18 23:42:00,
2013-08-18 19:52:00,71.0,-99.9,30.06,NE,40,11.0,-999.0,-999,-99.99,,,-99.99,,2013-08-18 23:52:00,